Вернуться в каталог

SL-19 DEB

АктивенUNKNOWN
NORAD 23491·DEBRIS·🇷🇺 Russia

Запущен Dec 26, 1994 с Baikonur Cosmodrome

Loading…

Ближайшие Пролёты (ближайшие 24 часа)

TLE

СвежийSource: Space-Track

Эпоха: Sep 11, 2026, 17:58 UTC

1 23491U 94085P   26254.74896897  .00003229  00000-0  72940-1 0  9991
2 23491  64.8108 264.8647 0367924 227.5669 310.2714 11.37512349313284

Отслеживайте SL-19 DEB в реальном времени с AllMySat

Download on the App Store